Tracking 17925 objects as of 22-January-2017
HD Live streaming from Space Station
objects crossing your sky now

SL-16 DEB

Track SL-16 DEB now!
10-day predictions


NORAD ID: 24303
Int'l Code: 1996-051G
Perigee: 822.0 km
Apogee: 924.5 km
Inclination: 71.1 °
Period: 102.3 minutes
Semi major axis: 7244 km
RCS: 0.4797 m2 (medium)
Launch date: September 4, 1996
Source: Commonwealth of Independent States (former USSR) (CIS)
Launch site: TYURATAM MISSILE AND SPACE COMPLEX (TTMTR)

Note: This is SATELLITE DEBRIS
Your satellite tracking list
Your tracking list is empty





NASA's NSSDC Master Catalog

Two Line Element Set (TLE):
1 24303U 96051G   17020.89982888 +.00000054 +00000-0 +57476-4 0  9995
2 24303 071.1068 284.3323 0070743 180.9845 230.5069 14.08038776047211
Source of the keplerian elements: AFSPC